Location: Baldwin Hills
(34.0058°N, 118.3414°W)
Time: 16:32:11
(UTC+00:00)

Daily predictions for brighter satellites

Satellite Brightness Start Highest point End
(mag) Time Altitude Azimuth Time Altitude Azimuth Time Altitude Azimuth
SJ 16-02 4.0 12:01:51 10° SE 12:04:48 18° E 12:07:44 10° NE
SL-4 R/B 3.9 12:28:17 24° E 12:28:17 24° E 12:30:18 10° ENE
Cosmos 1151 Rocket 3.2 12:37:31 69° ESE 12:37:31 69° ESE 12:41:35 10° SSE
H-2A R/B (2) 3.5 12:36:46 23° SSW 12:38:48 34° SSE 12:49:56 10° E
CZ-2C R/B 3.9 12:35:03 10° SE 12:40:06 39° ENE 12:45:04 10° N
MOS 1-B Rocket 4.2 12:36:49 10° SSE 12:43:05 67° ENE 12:48:40 10° N
BREEZE-M DEB 3.4 12:44:32 47° ENE 12:44:32 47° ENE 12:48:23 10° NE
Uosat 12 SS-18 rocket 4.4 12:46:08 67° WNW 12:46:18 67° WNW 12:52:16 10° NNE
BREEZE-M DEB (TANK) 3.6 12:47:05 57° W 12:47:55 69° SW 12:52:08 10° SE
Cosmos 1777 Rocket 4.1 12:44:32 10° S 12:49:43 73° ESE 12:54:56 10° NNE
Cosmos 1634 Rocket 4.0 12:51:51 36° NNW 12:54:12 56° W 13:00:13 10° SSW
BREEZE-M DEB (TANK) 4.1 12:47:51 23° NW 12:58:51 89° SW 13:03:58 10° SE
Meteor 1-10 Rocket 4.4 12:56:02 10° N 13:01:34 71° E 13:07:06 10° SSE
CZ-4B R/B 4.2 12:57:22 10° NNE 13:01:51 79° ESE 13:06:15 10° S
Cosmos 1328 Rocket 3.4 13:04:48 33° NNW 13:06:42 74° W 13:10:59 10° S
SL-19 R/B 4.2 13:03:45 10° SSE 13:09:21 82° WSW 13:14:57 10° NNW
SAR-Lupe-3 4.4 13:06:00 10° N 13:09:36 82° WNW 13:13:11 10° SSW
Lacrosse 5 3.7 13:08:31 10° S 13:12:59 32° ESE 13:17:28 10° ENE
Envisat 2.9 13:08:49 10° N 13:13:49 60° WNW 13:18:48 10° SSW
Centaur D-1A AC-35 3.8 13:12:42 14° SW 13:15:37 26° S 13:18:48 10° ESE
SL-8 R/B 3.8 13:16:15 30° NW 13:18:31 69° NE 13:23:16 10° ESE
COSMO-SKYMED 1 2.5 13:16:16 10° S 13:20:35 84° WSW 13:24:56 10° NNW
FALCON 9 R/B 4.2 13:03:47 24° W 13:21:19 82° SSW 13:28:28 10° ESE
ATLAS 3B R/B 2.6 13:17:01 10° SW 13:23:23 61° WNW 13:30:03 10° NNE
Landsat 5 3.7 13:20:46 10° SSE 13:25:16 79° ENE 13:29:43 10° N
ATLAS 5 CENTAUR R/B 2.6 13:27:14 22° NNW 13:27:14 22° NNW 13:29:40 10° N
Helios 1B 4.5 13:22:58 10° S 13:27:15 67° WSW 13:31:34 10° NNW
Cosmos 1408 Rocket 3.7 13:23:19 10° SSW 13:27:26 45° W 13:31:34 10° N
NOAA 11 4.4 13:22:31 10° NNE 13:28:02 78° ESE 13:33:31 10° S
CZ-4C R/B 3.5 13:25:18 10° SSE 13:28:20 51° ENE 13:31:22 10° N
Cosmos 2180 Rocket 4.4 13:23:22 10° NNW 13:29:25 63° W 13:35:26 10° S
Cosmos 1340 Rocket 2.7 13:32:15 10° SSW 13:36:08 62° W 13:40:06 10° N
Cosmos 1743 Rocket 3.4 13:34:46 10° SSW 13:39:07 69° W 13:43:28 10° N
SJ 16-02 2.1 13:39:13 10° SW 13:43:04 30° WNW 13:46:56 10° N
Alouette 2 Rocket 4.1 13:40:35 10° N 13:44:03 51° E 13:48:00 10° SSE
CZ-4B R/B 2.7 13:42:38 10° NNE 13:46:15 79° ESE 13:49:56 10° S
H-2A R/B 4.3 13:48:55 16° W 13:48:55 16° W 13:50:26 10° WSW
OAO 2 Rocket 3.5 13:43:46 11° WSW 13:48:50 78° SSE 13:53:57 10° E
Cosmos 1515 Rocket 4.0 13:49:27 10° NNW 13:53:29 38° W 13:57:29 10° SSW
USA 215 4.3 13:48:24 10° ESE 13:54:18 38° NE 14:00:14 10° NNW
BREEZE-M DEB (TANK) 4.3 13:43:21 10° WSW 13:56:25 36° NW 14:00:24 10° NNE
DELTA 2 R/B (1) 3.9 13:52:54 14° WNW 13:57:31 54° N 14:02:56 10° E
Cosmos 2228 Rocket 3.4 13:55:01 10° N 13:59:32 75° E 14:04:05 10° S
Meteor 1-31 Rocket 4.1 13:56:50 10° NNW 13:59:38 19° WNW 14:02:26 10° WSW
SL-27 R/B 3.6 14:01:14 11° NW 14:03:58 25° W 14:06:53 10° SSW
Meteor 1-27 Rocket 4.0 13:59:18 10° NNW 14:04:49 50° W 14:10:24 10° SSW
CZ-4B R/B 3.8 14:03:03 10° SE 14:05:43 23° ENE 14:08:21 10° NNE
Cosmos 1500 Rocket 4.3 14:02:05 10° SW 14:06:01 31° WNW 14:10:00 10° NNW
Sich 1 2.9 14:02:02 10° SSW 14:06:18 73° W 14:10:34 10° N
SL-4 R/B 2.8 14:03:54 11° W 14:06:41 24° NNW 14:09:43 10° NNE
Cosmos 1939 Rocket 2.7 14:08:52 10° N 14:12:43 67° WNW 14:16:31 10° SSW
Cosmos 44 4.0 14:07:26 10° SSW 14:12:47 68° ESE 14:18:03 10° NE
NOAA 12 4.1 14:11:21 10° N 14:16:29 58° WNW 14:21:36 10° SSW
Cosmos 2297 Rocket 3.5 14:11:55 10° N 14:17:14 40° ENE 14:22:32 10° SE
H-2A R/B 2.2 14:13:16 10° SSE 14:17:31 84° ENE 14:21:55 10° NNW
Cosmos 1805 Rocket 4.0 14:14:30 10° SSW 14:18:35 38° W 14:22:41 10° N
Okean 1 3.4 14:15:29 10° N 14:19:27 82° E 14:23:23 10° S
CZ-2C R/B 3.9 14:16:18 10° SW 14:20:26 22° W 14:24:31 10° NW
Cosmos 1538 Rocket 4.1 14:16:35 10° NNW 14:21:43 61° WSW 14:26:46 10° S
